TimeMDT,TemperatureF,Dew PointF,Humidity,Sea Level PressureIn,VisibilityMPH,Wind Direction,Wind SpeedMPH,Gust SpeedMPH,PrecipitationIn,Events,Conditions,WindDirDegrees,DateUTC
12:55 AM,57.0,50.0,77,29.90,10.0,Calm,Calm,-,N/A,,Clear,0,2013-08-16 06:55:00
1:55 AM,54.0,50.0,86,29.90,10.0,Calm,Calm,-,N/A,,Clear,0,2013-08-16 07:55:00
2:55 AM,53.1,48.0,83,29.90,10.0,NW,3.5,-,N/A,,Clear,320,2013-08-16 08:55:00
3:55 AM,52.0,48.0,86,29.90,10.0,Calm,Calm,-,N/A,,Clear,0,2013-08-16 09:55:00
4:55 AM,51.1,46.9,86,29.91,10.0,West,3.5,-,N/A,,Clear,280,2013-08-16 10:55:00
5:55 AM,48.9,45.0,86,29.93,10.0,Calm,Calm,-,N/A,,Clear,0,2013-08-16 11:55:00
6:55 AM,50.0,46.0,86,29.93,10.0,Calm,Calm,-,N/A,,Clear,0,2013-08-16 12:55:00
7:55 AM,55.9,48.9,77,29.94,10.0,Calm,Calm,-,N/A,,Clear,0,2013-08-16 13:55:00
8:55 AM,66.0,48.9,54,29.95,10.0,NNE,4.6,-,N/A,,Clear,20,2013-08-16 14:55:00
9:55 AM,71.1,48.9,45,29.95,10.0,Calm,Calm,-,N/A,,Clear,0,2013-08-16 15:55:00
10:55 AM,75.9,48.9,38,29.95,10.0,NE,4.6,-,N/A,,Clear,40,2013-08-16 16:55:00
11:55 AM,80.1,46.9,31,29.93,10.0,Calm,Calm,-,N/A,,Clear,0,2013-08-16 17:55:00
12:55 PM,84.0,45.0,25,29.92,10.0,Calm,Calm,-,N/A,,Clear,0,2013-08-16 18:55:00
1:55 PM,87.1,45.0,23,29.91,10.0,SSW,3.5,-,N/A,,Clear,210,2013-08-16 19:55:00
2:55 PM,88.0,45.0,22,29.89,10.0,SW,4.6,-,N/A,,Partly Cloudy,230,2013-08-16 20:55:00
3:55 PM,91.0,45.0,20,29.88,10.0,SW,9.2,-,N/A,,Mostly Cloudy,230,2013-08-16 21:55:00
4:55 PM,90.0,44.1,20,29.88,10.0,West,10.4,20.7,N/A,,Partly Cloudy,280,2013-08-16 22:55:00
5:55 PM,87.1,44.1,22,29.90,10.0,WNW,6.9,19.6,N/A,,Clear,300,2013-08-16 23:55:00
6:55 PM,84.0,45.0,25,29.91,10.0,WNW,6.9,-,N/A,,Clear,300,2013-08-17 00:55:00
7:55 PM,80.1,45.0,29,29.91,10.0,NW,3.5,-,N/A,,Clear,320,2013-08-17 01:55:00
8:55 PM,75.9,44.1,32,29.93,10.0,Calm,Calm,-,N/A,,Clear,0,2013-08-17 02:55:00
9:55 PM,73.0,45.0,37,29.94,10.0,NW,3.5,-,N/A,,Clear,310,2013-08-17 03:55:00
10:55 PM,66.9,48.0,51,29.94,10.0,Calm,Calm,-,N/A,,Clear,0,2013-08-17 04:55:00
11:55 PM,70.0,48.0,46,29.93,10.0,Calm,Calm,-,N/A,,Clear,0,2013-08-17 05:55:00